{"data":{"norad_id":45700,"epoch":"2026-05-25T03:06:42.636960Z","epoch_age_seconds":73914,"freshness":"FRESH","line1":"1 45700U 20035AV  26145.12966015  .00097823  00000+0  10551-2 0  9996","line2":"2 45700  53.0439  12.1734 0003617  63.6776 296.4608 15.62900321331250","mean_motion":15.62900321,"eccentricity":0.0003617,"inclination_deg":53.0439,"raan_deg":12.1734,"arg_perigee_deg":63.6776,"mean_anomaly_deg":296.4608,"bstar":0.0010551,"rev_number":33125,"period_min":92.136394154596,"perigee_km":376.84000588329,"apogee_km":381.72832435414,"semimajor_km":6757.4211651187,"source":"CELESTRAK","updated_at":"2026-05-25T13:38:16.430566Z"}}